VTK609 UHPP-UIAA

Flight info

Callsign VTK609
Flight time N/A
Altitude 34000
Route SAMIK4L SAMIK T577 NURBA G73 ABOMA T577 MASET G73 ODEPI T577 NA/K0830F360 T577 KU W172 PIGUK PIGUK2L
Aircraft B738/M-SDE2E3FGHIRWXY/LB1

Departure

Time 2026-04-24 21:49
Airport Yelizovo Airport (UHPP)

Arrival

Time N/A
Airport Chita-Kadala International Airport (UIAA)
Time Latitude Longitude Altitude Speed Heading
2026-04-24 21:29 53.16899 158.42933 184 ft 0 kts 239°
2026-04-24 21:39 53.16899 158.42932 213 ft 1 kts 239°
2026-04-24 21:39 53.16892 158.42911 214 ft 3 kts 240°
2026-04-24 21:39 53.16886 158.42870 214 ft 4 kts 270°
2026-04-24 21:39 53.16898 158.42830 211 ft 4 kts 314°
2026-04-24 21:40 53.16922 158.42802 211 ft 4 kts 328°
2026-04-24 21:40 53.16951 158.42781 211 ft 5 kts 342°
2026-04-24 21:40 53.16986 158.42765 211 ft 5 kts 351°
2026-04-24 21:40 53.17021 158.42789 211 ft 6 kts 43°
2026-04-24 21:41 53.17044 158.42848 211 ft 7 kts 61°
2026-04-24 21:41 53.17074 158.42936 211 ft 10 kts 59°
2026-04-24 21:41 53.17117 158.43056 211 ft 13 kts 59°
2026-04-24 21:41 53.17167 158.43199 211 ft 16 kts 59°
2026-04-24 21:42 53.17226 158.43366 211 ft 18 kts 60°
2026-04-24 21:42 53.17290 158.43556 211 ft 20 kts 60°
2026-04-24 21:42 53.17360 158.43756 170 ft 20 kts 59°
2026-04-24 21:42 53.17427 158.43946 136 ft 15 kts 59°
2026-04-24 21:43 53.17474 158.44105 136 ft 16 kts 67°
2026-04-24 21:43 53.17507 158.44235 136 ft 9 kts 67°
2026-04-24 21:43 53.17515 158.44320 136 ft 8 kts 110°
2026-04-24 21:43 53.17469 158.44381 136 ft 11 kts 156°
2026-04-24 21:44 53.17380 158.44444 136 ft 17 kts 157°
2026-04-24 21:44 53.17263 158.44525 136 ft 19 kts 157°
2026-04-24 21:44 53.17133 158.44615 136 ft 21 kts 157°
2026-04-24 21:44 53.16996 158.44710 136 ft 21 kts 157°
2026-04-24 21:45 53.16861 158.44803 136 ft 21 kts 158°
2026-04-24 21:45 53.16731 158.44893 136 ft 20 kts 158°
2026-04-24 21:45 53.16606 158.44980 136 ft 19 kts 157°
2026-04-24 21:45 53.16484 158.45065 136 ft 19 kts 157°
2026-04-24 21:46 53.16365 158.45147 136 ft 18 kts 158°
2026-04-24 21:46 53.16262 158.45217 136 ft 12 kts 157°
2026-04-24 21:46 53.16181 158.45274 136 ft 13 kts 157°
2026-04-24 21:46 53.16115 158.45319 136 ft 10 kts 158°
2026-04-24 21:47 53.16068 158.45375 136 ft 8 kts 112°
2026-04-24 21:47 53.16072 158.45440 136 ft 9 kts 75°
2026-04-24 21:47 53.16097 158.45564 136 ft 5 kts 71°
2026-04-24 21:47 53.16115 158.45610 136 ft 5 kts 30°
2026-04-24 21:48 53.16147 158.45608 136 ft 2 kts 341°
2026-04-24 21:48 53.16150 158.45606 136 ft 0 kts 340°
2026-04-24 21:48 53.16151 158.45605 136 ft 1 kts 340°
2026-04-24 21:48 53.16257 158.45534 134 ft 46 kts 337°
2026-04-24 21:49 53.16775 158.45174 137 ft 112 kts 338°
2026-04-24 21:49 53.17672 158.44542 163 ft 164 kts 336°
2026-04-24 21:49 53.18719 158.43804 919 ft 157 kts 337°
2026-04-24 21:49 53.19776 158.43081 1506 ft 173 kts 338°
2026-04-24 21:50 53.20902 158.42309 2267 ft 182 kts 339°
2026-04-24 21:50 53.22151 158.41435 2605 ft 208 kts 339°
2026-04-24 21:50 53.23563 158.40445 2861 ft 230 kts 338°
2026-04-24 21:50 53.25096 158.39374 3235 ft 250 kts 339°
2026-04-24 21:51 53.26750 158.38221 3831 ft 261 kts 338°
2026-04-24 21:51 53.28432 158.37051 4738 ft 262 kts 338°
2026-04-24 21:51 53.30120 158.35880 5510 ft 267 kts 337°
2026-04-24 21:51 53.31856 158.34676 6312 ft 271 kts 336°
2026-04-24 21:52 53.33603 158.33466 7155 ft 271 kts 336°
2026-04-24 21:52 53.35335 158.32234 8044 ft 270 kts 331°
2026-04-24 21:52 53.36709 158.30171 8859 ft 267 kts 298°
2026-04-24 21:52 53.37232 158.27284 9766 ft 263 kts 272°
2026-04-24 21:53 53.36955 158.24228 10300 ft 275 kts 250°
2026-04-24 21:53 53.35930 158.21358 10480 ft 300 kts 233°
2026-04-24 21:53 53.34530 158.18580 10657 ft 322 kts 230°
2026-04-24 21:53 53.32993 158.15700 10880 ft 341 kts 230°
2026-04-24 21:54 53.31379 158.12704 11358 ft 350 kts 230°
2026-04-24 21:54 53.29739 158.09645 11985 ft 356 kts 230°
2026-04-24 21:54 53.28099 158.06563 12583 ft 361 kts 230°
2026-04-24 21:54 53.26420 158.03391 13191 ft 368 kts 230°
2026-04-24 21:55 53.24713 158.00153 13768 ft 374 kts 230°
2026-04-24 21:55 53.22986 157.96870 14316 ft 378 kts 231°
2026-04-24 21:55 53.21240 157.93554 14896 ft 382 kts 231°
2026-04-24 21:55 53.19475 157.90210 15480 ft 386 kts 231°
2026-04-24 21:56 53.17695 157.86834 16011 ft 390 kts 231°
2026-04-24 21:56 53.15890 157.83407 16597 ft 394 kts 231°
2026-04-24 21:56 53.14073 157.79973 17179 ft 398 kts 231°
2026-04-24 21:56 53.12231 157.76494 17724 ft 402 kts 231°
2026-04-24 21:57 53.10371 157.72984 18239 ft 407 kts 231°
2026-04-24 21:57 53.08490 157.69436 18731 ft 409 kts 231°
2026-04-24 21:57 53.06602 157.65880 19271 ft 411 kts 232°
2026-04-24 21:57 53.04723 157.62283 19775 ft 412 kts 236°
2026-04-24 21:58 53.03382 157.58134 20252 ft 405 kts 256°
2026-04-24 21:58 53.02662 157.53712 20888 ft 402 kts 259°
2026-04-24 21:58 53.01961 157.49184 21325 ft 406 kts 259°
2026-04-24 21:58 53.01250 157.44606 21744 ft 410 kts 259°
2026-04-24 21:59 53.00526 157.40002 22213 ft 412 kts 259°
2026-04-24 21:59 52.99793 157.35401 22671 ft 413 kts 258°
2026-04-24 21:59 52.99047 157.30775 23131 ft 416 kts 258°
2026-04-24 21:59 52.98291 157.26119 23537 ft 418 kts 258°
2026-04-24 22:00 52.97527 157.21439 23885 ft 421 kts 258°
2026-04-24 22:00 52.96755 157.16733 24243 ft 423 kts 258°
2026-04-24 22:00 52.95987 157.12066 24565 ft 425 kts 257°
2026-04-24 22:00 52.95206 157.07329 24898 ft 427 kts 257°
2026-04-24 22:01 52.94417 157.02560 25222 ft 430 kts 257°
2026-04-24 22:01 52.93622 156.97763 25534 ft 432 kts 257°
2026-04-24 22:01 52.92821 156.92945 25857 ft 434 kts 257°
2026-04-24 22:01 52.92015 156.88112 26160 ft 437 kts 257°
2026-04-24 22:02 52.91201 156.83242 26461 ft 439 kts 257°
2026-04-24 22:02 52.90380 156.78345 26754 ft 441 kts 257°
2026-04-24 22:02 52.89563 156.73482 27040 ft 443 kts 257°
2026-04-24 22:02 52.88733 156.68559 27320 ft 445 kts 257°
2026-04-24 22:03 52.87895 156.63603 27585 ft 448 kts 256°
2026-04-24 22:03 52.87050 156.58623 27857 ft 450 kts 256°
2026-04-24 22:03 52.86201 156.53628 28133 ft 452 kts 256°
2026-04-24 22:03 52.85347 156.48619 28468 ft 452 kts 256°
2026-04-24 22:04 52.84493 156.43616 28885 ft 450 kts 256°
2026-04-24 22:04 52.83639 156.38636 29297 ft 449 kts 256°
2026-04-24 22:04 52.82784 156.33654 29664 ft 449 kts 257°
2026-04-24 22:04 52.82191 156.28672 29968 ft 447 kts 266°
2026-04-24 22:05 52.82073 156.23555 30252 ft 444 kts 274°
2026-04-24 22:05 52.82413 156.18486 30503 ft 443 kts 282°
2026-04-24 22:05 52.82994 156.13475 30741 ft 443 kts 283°
2026-04-24 22:05 52.83592 156.08485 31166 ft 440 kts 283°
2026-04-24 22:06 52.84175 156.03530 31448 ft 440 kts 283°
2026-04-24 22:06 52.84748 155.98520 31550 ft 444 kts 283°
2026-04-24 22:06 52.85308 155.93492 31864 ft 443 kts 283°
2026-04-24 22:06 52.85859 155.88476 32182 ft 442 kts 283°
2026-04-24 22:07 52.86409 155.83449 32327 ft 445 kts 282°
2026-04-24 22:07 52.86953 155.78448 32574 ft 445 kts 282°
2026-04-24 22:07 52.87489 155.73403 32909 ft 444 kts 282°
2026-04-24 22:07 52.88016 155.68291 33094 ft 446 kts 282°
2026-04-24 22:08 52.88524 155.63276 33222 ft 449 kts 282°
2026-04-24 22:08 52.89036 155.58181 33567 ft 446 kts 282°
2026-04-24 22:08 52.89547 155.53097 33870 ft 445 kts 282°
2026-04-24 22:09 52.90572 155.42926 33902 ft 449 kts 281°
2026-04-24 22:09 52.91421 155.34425 33904 ft 449 kts 281°
2026-04-24 22:10 52.92430 155.24243 33910 ft 448 kts 282°
2026-04-24 22:10 52.93433 155.14066 33909 ft 447 kts 282°
2026-04-24 22:11 52.94424 155.03855 33920 ft 447 kts 282°
2026-04-24 22:11 52.95407 154.93655 34074 ft 449 kts 281°
2026-04-24 22:11 52.95899 154.88532 34291 ft 448 kts 281°
2026-04-24 22:12 52.96377 154.83516 34571 ft 445 kts 281°
2026-04-24 22:12 52.96862 154.78410 34692 ft 448 kts 281°
2026-04-24 22:12 52.97349 154.73293 34791 ft 449 kts 282°
2026-04-24 22:12 52.97834 154.68197 35097 ft 446 kts 282°
2026-04-24 22:13 52.98318 154.63104 35331 ft 445 kts 282°
2026-04-24 22:13 52.99283 154.52895 35589 ft 448 kts 282°
2026-04-24 22:13 52.99760 154.47792 35842 ft 445 kts 280°
2026-04-24 22:14 53.00232 154.42724 35918 ft 443 kts 281°
2026-04-24 22:14 53.01167 154.32622 35947 ft 447 kts 282°
2026-04-24 22:15 53.02114 154.22301 35950 ft 453 kts 281°
2026-04-24 22:15 53.03054 154.11970 35957 ft 456 kts 280°
2026-04-24 22:16 53.03988 154.01518 35946 ft 454 kts 280°
2026-04-24 22:16 53.04902 153.91218 35935 ft 446 kts 281°
2026-04-24 22:17 53.05797 153.81052 35960 ft 445 kts 281°
2026-04-24 22:17 53.06691 153.70841 35963 ft 450 kts 280°
2026-04-24 22:18 53.07584 153.60527 35962 ft 455 kts 281°
2026-04-24 22:18 53.08474 153.50063 35953 ft 457 kts 279°
2026-04-24 22:19 53.09347 153.39659 35961 ft 450 kts 281°
2026-04-24 22:19 53.10204 153.29385 35965 ft 446 kts 280°
2026-04-24 22:20 53.11049 153.19176 35970 ft 444 kts 280°
2026-04-24 22:20 53.11883 153.08981 35991 ft 448 kts 280°
2026-04-24 22:21 53.12723 152.98618 35975 ft 453 kts 279°
2026-04-24 22:21 53.13555 152.88220 35990 ft 456 kts 280°
2026-04-24 22:22 53.14382 152.77705 35985 ft 457 kts 279°
2026-04-24 22:22 53.15196 152.67309 35980 ft 451 kts 280°
2026-04-24 22:23 53.15995 152.56975 35982 ft 447 kts 279°
2026-04-24 22:23 53.16780 152.46696 35994 ft 445 kts 279°
2026-04-24 22:24 53.17553 152.36474 36001 ft 449 kts 280°
2026-04-24 22:24 53.18331 152.26077 36005 ft 453 kts 279°
2026-04-24 22:25 53.19103 152.15582 36007 ft 457 kts 279°
2026-04-24 22:25 53.19865 152.05101 36005 ft 456 kts 279°
2026-04-24 22:26 53.20614 151.94678 36001 ft 448 kts 279°
2026-04-24 22:26 53.21341 151.84423 36010 ft 446 kts 279°
2026-04-24 22:27 53.22063 151.74153 36004 ft 445 kts 279°
2026-04-24 22:27 53.22775 151.63886 36018 ft 444 kts 279°
2026-04-24 22:28 53.23474 151.53677 36025 ft 445 kts 279°
2026-04-24 22:28 53.24171 151.43353 36021 ft 447 kts 279°
2026-04-24 22:29 53.25200 151.27877 36032 ft 449 kts 279°
2026-04-24 22:29 53.25879 151.17478 36032 ft 451 kts 279°
2026-04-24 22:30 53.26552 151.07036 36028 ft 452 kts 279°
2026-04-24 22:30 53.27215 150.96585 36037 ft 452 kts 279°
2026-04-24 22:31 53.27866 150.86192 36035 ft 452 kts 279°
2026-04-24 22:31 53.28511 150.75735 36039 ft 451 kts 279°
2026-04-24 22:32 53.29143 150.65351 36047 ft 450 kts 279°
2026-04-24 22:32 53.29766 150.54955 36040 ft 449 kts 279°
2026-04-24 22:33 53.30377 150.44623 36041 ft 447 kts 279°
2026-04-24 22:33 53.30979 150.34288 36048 ft 446 kts 279°
2026-04-24 22:34 53.31572 150.23936 36054 ft 445 kts 279°
2026-04-24 22:34 53.32150 150.13708 36057 ft 444 kts 279°
2026-04-24 22:35 53.32725 150.03406 36060 ft 443 kts 279°
2026-04-24 22:35 53.33280 149.93171 36059 ft 443 kts 279°
2026-04-24 22:36 53.33821 149.82890 36060 ft 443 kts 279°
2026-04-24 22:36 53.34354 149.72592 36062 ft 444 kts 279°
2026-04-24 22:37 53.34877 149.62341 36069 ft 444 kts 279°
2026-04-24 22:37 53.35396 149.51993 36069 ft 445 kts 279°
2026-04-24 22:38 53.35907 149.41650 36068 ft 445 kts 279°
2026-04-24 22:38 53.36406 149.31356 36068 ft 446 kts 279°
2026-04-24 22:39 53.36899 149.20989 36068 ft 446 kts 279°
2026-04-24 22:39 53.37383 149.10626 36068 ft 446 kts 279°
2026-04-24 22:40 53.37858 149.00261 36077 ft 446 kts 279°
2026-04-24 22:40 53.38322 148.89939 36076 ft 446 kts 279°
2026-04-24 22:41 53.38781 148.79537 36077 ft 446 kts 279°
2026-04-24 22:41 53.39228 148.69191 36078 ft 446 kts 279°
2026-04-24 22:42 53.39665 148.58877 36071 ft 445 kts 279°
2026-04-24 22:42 53.40093 148.48540 36068 ft 444 kts 279°
2026-04-24 22:43 53.40513 148.38205 36074 ft 443 kts 279°
2026-04-24 22:43 53.40920 148.27956 36085 ft 441 kts 279°
2026-04-24 22:44 53.41319 148.17679 36089 ft 440 kts 279°
2026-04-24 22:44 53.41707 148.07495 36089 ft 439 kts 279°
2026-04-24 22:45 53.42087 147.97272 36090 ft 439 kts 279°
2026-04-24 22:45 53.42459 147.87038 36090 ft 439 kts 278°
2026-04-24 22:46 53.42822 147.76844 36093 ft 439 kts 278°
2026-04-24 22:46 53.43180 147.66627 36093 ft 439 kts 278°
2026-04-24 22:47 53.43543 147.56453 36089 ft 439 kts 279°
2026-04-24 22:47 53.43903 147.46198 36091 ft 440 kts 279°
2026-04-24 22:48 53.44253 147.35921 36081 ft 441 kts 279°
2026-04-24 22:48 53.44591 147.25721 36088 ft 441 kts 279°
2026-04-24 22:49 53.44924 147.15425 36091 ft 441 kts 278°
2026-04-24 22:49 53.45246 147.05210 36101 ft 441 kts 278°
2026-04-24 22:50 53.45565 146.94923 36098 ft 441 kts 278°
2026-04-24 22:50 53.45886 146.84651 36100 ft 441 kts 278°
2026-04-24 22:51 53.46201 146.74367 36094 ft 440 kts 278°
2026-04-24 22:51 53.46504 146.64144 36100 ft 439 kts 278°
2026-04-24 22:52 53.46800 146.53879 36099 ft 439 kts 278°
2026-04-24 22:52 53.47084 146.43695 36111 ft 438 kts 278°
2026-04-24 22:53 53.47361 146.33466 36105 ft 438 kts 278°
2026-04-24 22:53 53.47628 146.23294 36111 ft 438 kts 278°
2026-04-24 22:54 53.47887 146.13067 36114 ft 438 kts 278°
2026-04-24 22:54 53.48138 146.02877 36098 ft 437 kts 278°
2026-04-24 22:55 53.48379 145.92721 36088 ft 437 kts 278°
2026-04-24 22:55 53.48614 145.82506 36107 ft 437 kts 278°
2026-04-24 22:56 53.48804 145.74025 36118 ft 437 kts 278°
2026-04-24 22:56 53.49026 145.63818 36118 ft 437 kts 278°
2026-04-24 22:57 53.49240 145.53629 36121 ft 438 kts 278°
2026-04-24 22:57 53.49445 145.43379 36121 ft 438 kts 278°
2026-04-24 22:58 53.49640 145.33194 36114 ft 438 kts 277°
2026-04-24 22:58 53.49828 145.22961 36124 ft 438 kts 277°
2026-04-24 22:59 53.50008 145.12689 36126 ft 439 kts 277°
2026-04-24 23:00 53.50260 144.97325 36126 ft 439 kts 277°
2026-04-24 23:00 53.50417 144.87115 36132 ft 439 kts 277°
2026-04-24 23:01 53.50565 144.76826 36092 ft 439 kts 276°
2026-04-24 23:01 53.50703 144.66626 36118 ft 439 kts 276°
2026-04-24 23:02 53.50835 144.56363 36130 ft 439 kts 276°
2026-04-24 23:02 53.50958 144.46095 36133 ft 439 kts 276°
2026-04-24 23:03 53.51072 144.35797 36136 ft 439 kts 276°
2026-04-24 23:03 53.51176 144.25567 36135 ft 440 kts 276°
2026-04-24 23:04 53.51273 144.15283 36123 ft 440 kts 276°
2026-04-24 23:04 53.51357 144.05070 36135 ft 439 kts 275°
2026-04-24 23:05 53.51437 143.94769 36144 ft 439 kts 275°
2026-04-24 23:05 53.51508 143.84504 36136 ft 440 kts 275°
2026-04-24 23:06 53.51569 143.74289 36137 ft 440 kts 275°
2026-04-24 23:06 53.51621 143.63988 36136 ft 440 kts 275°
2026-04-24 23:07 53.51666 143.53684 36135 ft 440 kts 275°
2026-04-24 23:07 53.51700 143.43384 36126 ft 440 kts 274°
2026-04-24 23:08 53.51720 143.33146 36132 ft 441 kts 274°
2026-04-24 23:08 53.51729 143.22826 36135 ft 441 kts 274°
2026-04-24 23:09 53.51730 143.12502 36131 ft 441 kts 274°
2026-04-24 23:09 53.51724 143.02224 36134 ft 441 kts 274°
2026-04-24 23:10 53.51708 142.91893 36129 ft 442 kts 273°
2026-04-24 23:10 53.50784 142.81604 36135 ft 448 kts 258°
2026-04-24 23:11 53.49148 142.71556 36123 ft 449 kts 258°
2026-04-24 23:11 53.47490 142.61421 36122 ft 449 kts 258°
2026-04-24 23:12 53.45859 142.51276 36121 ft 449 kts 258°
2026-04-24 23:12 53.44240 142.41153 36124 ft 449 kts 258°
2026-04-24 23:13 53.42625 142.31093 36103 ft 449 kts 257°
2026-04-24 23:13 53.40985 142.20938 36115 ft 448 kts 257°
2026-04-24 23:14 53.39351 142.10900 36108 ft 448 kts 257°
2026-04-24 23:14 53.37710 142.00866 36113 ft 448 kts 257°
2026-04-24 23:15 53.36055 141.90803 36110 ft 448 kts 257°
2026-04-24 23:15 53.34382 141.80701 36112 ft 448 kts 257°
2026-04-24 23:16 53.32713 141.70678 36105 ft 448 kts 257°
2026-04-24 23:16 53.31026 141.60607 36109 ft 448 kts 256°
2026-04-24 23:17 53.29340 141.50593 36107 ft 448 kts 256°
2026-04-24 23:17 53.27645 141.40587 36106 ft 448 kts 256°
2026-04-24 23:18 53.25932 141.30538 36094 ft 448 kts 256°
2026-04-24 23:18 53.24224 141.20570 36103 ft 448 kts 256°
2026-04-24 23:19 53.22494 141.10532 36101 ft 448 kts 256°
2026-04-24 23:19 53.20769 141.00576 36109 ft 448 kts 255°
2026-04-24 23:20 53.19034 140.90616 36099 ft 448 kts 255°
2026-04-24 23:20 53.17293 140.80670 36101 ft 448 kts 255°
2026-04-24 23:21 53.15611 140.70666 36088 ft 447 kts 260°
2026-04-24 23:21 53.15319 140.60398 36106 ft 444 kts 274°
2026-04-24 23:22 53.15675 140.50115 36092 ft 444 kts 274°
2026-04-24 23:22 53.16019 140.39865 36089 ft 444 kts 274°
2026-04-24 23:23 53.16323 140.29579 36093 ft 444 kts 273°
2026-04-24 23:23 53.16600 140.19280 36088 ft 445 kts 273°
2026-04-24 23:24 53.16866 140.08969 36080 ft 445 kts 272°
2026-04-24 23:24 53.17121 139.98712 36090 ft 445 kts 272°
2026-04-24 23:25 53.17369 139.88378 36084 ft 446 kts 272°
2026-04-24 23:25 53.17610 139.78020 36094 ft 447 kts 272°
2026-04-24 23:26 53.17841 139.67700 36089 ft 448 kts 271°
2026-04-24 23:26 53.18065 139.57302 36089 ft 449 kts 271°
2026-04-24 23:27 53.18280 139.46872 36089 ft 450 kts 271°
2026-04-24 23:27 53.18485 139.36428 36085 ft 451 kts 271°
2026-04-24 23:28 53.18684 139.25958 36083 ft 451 kts 271°
2026-04-24 23:28 53.18871 139.15544 36085 ft 452 kts 270°
2026-04-24 23:29 53.19051 139.05052 36084 ft 453 kts 270°
2026-04-24 23:29 53.19222 138.94540 36082 ft 453 kts 270°
2026-04-24 23:30 53.19383 138.84028 36084 ft 453 kts 270°
2026-04-24 23:30 53.19535 138.73580 36076 ft 453 kts 270°
2026-04-24 23:31 53.19678 138.63041 36075 ft 453 kts 269°
2026-04-24 23:31 53.19812 138.52501 36076 ft 453 kts 269°
2026-04-24 23:32 53.19937 138.42040 36062 ft 453 kts 269°
2026-04-24 23:32 53.20052 138.31511 36070 ft 453 kts 269°
2026-04-24 23:33 53.20157 138.21039 36065 ft 453 kts 269°
2026-04-24 23:33 53.20254 138.10516 36065 ft 454 kts 269°
2026-04-24 23:34 53.20342 137.99916 36066 ft 454 kts 268°
2026-04-24 23:34 53.20420 137.89431 36061 ft 454 kts 268°
2026-04-24 23:35 53.20490 137.78867 36061 ft 455 kts 268°
2026-04-24 23:35 53.20549 137.68303 36059 ft 455 kts 268°
2026-04-24 23:36 53.20599 137.57785 36061 ft 456 kts 268°
2026-04-24 23:36 53.20641 137.47157 36063 ft 457 kts 268°
2026-04-24 23:37 53.20673 137.36531 36057 ft 458 kts 268°
2026-04-24 23:37 53.20704 137.20618 36054 ft 459 kts 268°
2026-04-24 23:38 53.20712 137.09942 36057 ft 459 kts 268°
2026-04-24 23:38 53.20713 137.01074 36044 ft 459 kts 267°
2026-04-24 23:39 53.20703 136.88679 36062 ft 460 kts 267°
2026-04-24 23:39 53.20691 136.79728 36059 ft 459 kts 267°
2026-04-24 23:40 53.20673 136.69136 36050 ft 459 kts 267°
2026-04-24 23:40 53.20646 136.58484 36062 ft 458 kts 267°
2026-04-24 23:41 53.20609 136.47832 36063 ft 458 kts 267°
2026-04-24 23:41 53.20563 136.37199 36058 ft 458 kts 267°
2026-04-24 23:42 53.20508 136.26646 36058 ft 457 kts 267°
2026-04-24 23:42 53.20445 136.16039 36062 ft 457 kts 266°
2026-04-24 23:43 53.20371 136.05470 36059 ft 457 kts 266°
2026-04-24 23:43 53.20286 135.94825 36060 ft 457 kts 266°
2026-04-24 23:44 53.20193 135.84281 36043 ft 457 kts 266°
2026-04-24 23:44 53.20091 135.73636 36039 ft 458 kts 266°
2026-04-24 23:45 53.19980 135.63041 36038 ft 459 kts 266°
2026-04-24 23:45 53.19860 135.52367 36025 ft 459 kts 266°
2026-04-24 23:46 53.19725 135.41700 36042 ft 460 kts 266°
2026-04-24 23:46 53.19569 135.31014 36025 ft 461 kts 265°
2026-04-24 23:47 53.19408 135.20383 36029 ft 461 kts 265°
2026-04-24 23:47 53.19241 135.09679 36020 ft 462 kts 266°
2026-04-24 23:48 53.19082 134.98959 36013 ft 462 kts 265°
2026-04-24 23:48 53.18917 134.88241 36019 ft 462 kts 265°
2026-04-24 23:49 53.18744 134.77507 35996 ft 462 kts 265°
2026-04-24 23:49 53.18565 134.66850 35996 ft 462 kts 265°
2026-04-24 23:50 53.18368 134.56130 35975 ft 462 kts 265°
2026-04-24 23:50 53.18163 134.45411 35959 ft 462 kts 265°
2026-04-24 23:51 53.17948 134.34697 35949 ft 461 kts 265°
2026-04-24 23:51 53.17728 134.24063 35916 ft 460 kts 265°
2026-04-24 23:52 53.17496 134.13407 35916 ft 460 kts 265°
2026-04-24 23:52 53.17254 134.02744 35922 ft 459 kts 264°
2026-04-24 23:53 53.17005 133.92164 35917 ft 459 kts 264°
2026-04-24 23:53 53.16745 133.81514 35925 ft 460 kts 264°
2026-04-24 23:54 53.16475 133.70856 35919 ft 459 kts 264°
2026-04-24 23:54 53.16196 133.60186 35914 ft 460 kts 264°
2026-04-24 23:55 53.15909 133.49596 35903 ft 460 kts 264°
2026-04-24 23:55 53.15609 133.38943 35912 ft 459 kts 264°
2026-04-24 23:56 53.15305 133.28369 35908 ft 460 kts 264°
2026-04-24 23:56 53.14988 133.17720 35909 ft 460 kts 264°
2026-04-24 23:57 53.14661 133.07037 35905 ft 462 kts 264°
2026-04-24 23:57 53.14324 132.96317 35908 ft 463 kts 264°
2026-04-24 23:58 53.13997 132.85618 35888 ft 466 kts 266°
2026-04-24 23:58 53.14182 132.80214 35870 ft 470 kts 277°
2026-04-24 23:58 53.14814 132.74855 35894 ft 471 kts 279°
2026-04-24 23:59 53.16230 132.64158 35884 ft 473 kts 280°
2026-04-24 23:59 53.17628 132.53385 35896 ft 475 kts 279°
2026-04-25 00:00 53.18963 132.42674 35882 ft 475 kts 279°
2026-04-25 00:00 53.20282 132.31866 35881 ft 476 kts 279°
2026-04-25 00:01 53.21595 132.21013 35883 ft 477 kts 279°
2026-04-25 00:01 53.22900 132.10156 35892 ft 477 kts 279°
2026-04-25 00:02 53.24188 131.99354 35890 ft 477 kts 279°
2026-04-25 00:02 53.25477 131.88464 35883 ft 477 kts 278°
2026-04-25 00:03 53.26747 131.77639 35888 ft 477 kts 278°
2026-04-25 00:03 53.28014 131.66749 35882 ft 477 kts 278°
2026-04-25 00:04 53.29270 131.55870 35882 ft 477 kts 278°
2026-04-25 00:04 53.30518 131.44968 35872 ft 476 kts 278°
2026-04-25 00:05 53.31728 131.34076 35876 ft 476 kts 278°
2026-04-25 00:05 53.32872 131.23236 35873 ft 476 kts 277°
2026-04-25 00:06 53.34013 131.12311 35871 ft 477 kts 277°
2026-04-25 00:06 53.35153 131.01354 35864 ft 477 kts 277°
2026-04-25 00:07 53.36286 130.90396 35870 ft 477 kts 277°
2026-04-25 00:07 53.37405 130.79482 35867 ft 478 kts 277°
2026-04-25 00:08 53.38523 130.68471 35865 ft 479 kts 277°
2026-04-25 00:08 53.39630 130.57456 35865 ft 479 kts 277°
2026-04-25 00:09 53.40731 130.46403 35866 ft 480 kts 277°
2026-04-25 00:09 53.41819 130.35363 35864 ft 480 kts 277°
2026-04-25 00:10 53.42892 130.24369 35869 ft 481 kts 277°
2026-04-25 00:10 53.43965 130.13277 35883 ft 481 kts 277°
2026-04-25 00:11 53.44846 130.04073 35870 ft 482 kts 277°
2026-04-25 00:11 53.46079 129.91067 35856 ft 482 kts 277°
2026-04-25 00:12 53.47121 129.79965 35860 ft 482 kts 277°
2026-04-25 00:12 53.48154 129.68899 35872 ft 481 kts 277°
2026-04-25 00:13 53.49188 129.57793 35862 ft 481 kts 277°
2026-04-25 00:13 53.50212 129.46666 35853 ft 481 kts 277°
2026-04-25 00:14 53.51216 129.35627 35859 ft 480 kts 276°
2026-04-25 00:14 53.52215 129.24542 35863 ft 480 kts 276°
2026-04-25 00:15 53.53205 129.13432 35862 ft 479 kts 276°
2026-04-25 00:15 53.54168 129.02334 35860 ft 479 kts 276°
2026-04-25 00:16 53.55108 128.91317 35861 ft 479 kts 276°
2026-04-25 00:16 53.56043 128.80238 35857 ft 478 kts 276°
2026-04-25 00:17 53.56970 128.69159 35858 ft 478 kts 276°
2026-04-25 00:17 53.57888 128.58064 35862 ft 477 kts 276°
2026-04-25 00:18 53.58794 128.46995 35861 ft 477 kts 276°
2026-04-25 00:18 53.59684 128.35985 35864 ft 477 kts 276°
2026-04-25 00:19 53.60568 128.24904 35856 ft 477 kts 276°
2026-04-25 00:19 53.61444 128.13801 35866 ft 477 kts 276°
2026-04-25 00:20 53.62311 128.02687 35878 ft 478 kts 276°
2026-04-25 00:20 53.63162 127.91636 35866 ft 478 kts 276°
2026-04-25 00:21 53.64007 127.80522 35851 ft 477 kts 276°
2026-04-25 00:21 53.64839 127.69441 35860 ft 477 kts 276°
2026-04-25 00:22 53.65662 127.58339 35860 ft 476 kts 275°
2026-04-25 00:22 53.66468 127.47329 35859 ft 475 kts 275°
2026-04-25 00:23 53.67268 127.36258 35862 ft 475 kts 275°
2026-04-25 00:23 53.68056 127.25198 35858 ft 475 kts 275°
2026-04-25 00:24 53.68836 127.14147 35861 ft 474 kts 275°
2026-04-25 00:24 53.69484 127.04951 35860 ft 474 kts 276°
2026-04-25 00:25 53.70317 126.93904 35870 ft 474 kts 276°
2026-04-25 00:25 53.71152 126.82842 35863 ft 474 kts 276°
2026-04-25 00:26 53.71966 126.71797 35862 ft 474 kts 276°
2026-04-25 00:26 53.72763 126.60799 35872 ft 474 kts 276°
2026-04-25 00:27 53.73556 126.49730 35857 ft 474 kts 276°
2026-04-25 00:27 53.74340 126.38674 35851 ft 473 kts 276°
2026-04-25 00:28 53.75114 126.27625 35865 ft 472 kts 276°
2026-04-25 00:28 53.75876 126.16602 35864 ft 471 kts 276°
2026-04-25 00:29 53.76627 126.05598 35866 ft 470 kts 276°
2026-04-25 00:29 53.77364 125.94661 35865 ft 470 kts 276°
2026-04-25 00:30 53.78078 125.83663 35868 ft 470 kts 275°
2026-04-25 00:30 53.78759 125.72643 35870 ft 470 kts 275°
2026-04-25 00:31 53.79432 125.61689 35871 ft 471 kts 275°
2026-04-25 00:31 53.80129 125.50662 35867 ft 471 kts 275°
2026-04-25 00:32 53.80832 125.39614 35871 ft 472 kts 275°
2026-04-25 00:32 53.81518 125.28624 35869 ft 472 kts 275°
2026-04-25 00:33 53.82196 125.17552 35870 ft 473 kts 275°
2026-04-25 00:33 53.82866 125.06447 35875 ft 473 kts 275°
2026-04-25 00:34 53.83518 124.95350 35870 ft 473 kts 275°
2026-04-25 00:34 53.84160 124.84253 35876 ft 473 kts 275°
2026-04-25 00:35 53.84790 124.73235 35878 ft 473 kts 275°
2026-04-25 00:35 53.85400 124.62159 35875 ft 472 kts 275°
2026-04-25 00:36 53.85977 124.51071 35878 ft 471 kts 275°
2026-04-25 00:36 53.86546 124.40010 35874 ft 470 kts 275°
2026-04-25 00:37 53.87107 124.28980 35876 ft 470 kts 275°
2026-04-25 00:37 53.87668 124.17993 35872 ft 469 kts 275°
2026-04-25 00:38 53.88230 124.06980 35869 ft 468 kts 275°
2026-04-25 00:38 53.88781 123.95977 35876 ft 467 kts 274°
2026-04-25 00:39 53.89319 123.84987 35879 ft 467 kts 275°
2026-04-25 00:39 53.89846 123.74026 35876 ft 466 kts 274°
2026-04-25 00:40 53.90360 123.63101 35884 ft 466 kts 275°
2026-04-25 00:40 53.90867 123.52128 35883 ft 466 kts 275°
2026-04-25 00:41 53.91363 123.41166 35889 ft 466 kts 275°
2026-04-25 00:41 53.91850 123.30183 35881 ft 466 kts 274°
2026-04-25 00:42 53.92324 123.19271 35902 ft 467 kts 275°
2026-04-25 00:42 53.92792 123.08261 35880 ft 467 kts 275°
2026-04-25 00:43 53.93250 122.97242 35901 ft 467 kts 274°
2026-04-25 00:43 53.93698 122.86218 35888 ft 468 kts 274°
2026-04-25 00:44 53.94133 122.75281 35900 ft 467 kts 274°
2026-04-25 00:44 53.94561 122.64242 35893 ft 467 kts 274°
2026-04-25 00:45 53.94979 122.53223 35909 ft 467 kts 274°
2026-04-25 00:45 53.95385 122.42229 35898 ft 467 kts 274°
2026-04-25 00:46 53.95780 122.31280 35907 ft 466 kts 274°
2026-04-25 00:47 53.96357 122.14780 35905 ft 466 kts 274°
2026-04-25 00:47 53.96729 122.03797 35906 ft 465 kts 274°
2026-04-25 00:48 53.96382 121.92838 35916 ft 466 kts 259°
2026-04-25 00:48 53.95087 121.82077 35913 ft 466 kts 258°
2026-04-25 00:49 53.93765 121.71356 35913 ft 466 kts 259°
2026-04-25 00:49 53.92476 121.60617 35924 ft 465 kts 259°
2026-04-25 00:50 53.91195 121.49819 35916 ft 465 kts 259°
2026-04-25 00:50 53.89914 121.39062 35917 ft 465 kts 260°
2026-04-25 00:51 53.88627 121.28369 35920 ft 464 kts 260°
2026-04-25 00:51 53.87329 121.17643 35924 ft 464 kts 260°
2026-04-25 00:52 53.86034 121.07009 35927 ft 463 kts 259°
2026-04-25 00:52 53.84710 120.96304 35932 ft 462 kts 260°
2026-04-25 00:53 53.83391 120.85702 35941 ft 460 kts 260°
2026-04-25 00:53 53.82064 120.75091 35931 ft 459 kts 259°
2026-04-25 00:54 53.80739 120.64573 35934 ft 457 kts 260°